When you browse on this site, cookies collect data to enhance your experience and personalize the content and advertising you see.
Visit our Privacy Policy to learn more. By continuing to use the site, you agree to this use of cookies and data.
  • In France
  • List of Countries
  • For 7 days
  • Water Temperature
  • Weather Map
  • Weather Widgets
  • user-avatar
    Login

    Hourly Weather Berat

    Today, 16 September, Monday

    Time Temperature Precipitation Wind Pressure Humidity
    00:00 +23°C° 0 mm 1 mps 748 mmHg 55%
    01:00 +22°C° 0 mm 1 mps 748 mmHg 57%
    02:00 +22°C° 0 mm 1 mps 748 mmHg 57%
    03:00 +22°C° 0 mm 1 mps 748 mmHg 56%
    04:00 +21°C° 0 mm 1 mps 747 mmHg 56%
    05:00 +22°C° 0 mm 1 mps 747 mmHg 53%
    06:00 +24°C° 0 mm 1 mps 747 mmHg 50%
    07:00 +25°C° 0 mm 1 mps 747 mmHg 46%
    08:00 +26°C° 0 mm 1 mps 747 mmHg 43%
    09:00 +28°C° 0 mm 1 mps 747 mmHg 39%
    10:00 +30°C° 0 mm 2 mps 747 mmHg 35%
    11:00 +30°C° 0 mm 2 mps 747 mmHg 35%
    12:00 +31°C° 0 mm 3 mps 746 mmHg 35%
    13:00 +33°C° 0 mm 4 mps 746 mmHg 35%
    14:00 +32°C° 0 mm 4 mps 745 mmHg 39%
    15:00 +30°C° 0 mm 3 mps 745 mmHg 43%
    16:00 +29°C° 0 mm 3 mps 745 mmHg 46%
    17:00 +27°C° 0 mm 2 mps 745 mmHg 55%
    18:00 +25°C° 0 mm 1 mps 745 mmHg 64%
    19:00 +23°C° 0 mm 1 mps 745 mmHg 72%
    20:00 +21°C° 0 mm 0 mps 745 mmHg 73%
    21:00 +20°C° 0 mm 0 mps 745 mmHg 73%
    22:00 +20°C° 0 mm 0 mps 745 mmHg 74%
    23:00 +20°C° 0 mm 0 mps 745 mmHg 73%

    Tomorrow, 17 September, Tuesday

    Time Temperature Precipitation Wind Pressure Humidity
    00:00 +19°C° 0 mm 0 mps 745 mmHg 72%
    01:00 +19°C° 0 mm 0 mps 746 mmHg 72%
    02:00 +19°C° 0 mm 0 mps 745 mmHg 71%
    03:00 +19°C° 0 mm 0 mps 745 mmHg 71%
    04:00 +19°C° 0 mm 0 mps 744 mmHg 71%
    05:00 +20°C° 0 mm 0 mps 745 mmHg 66%
    06:00 +21°C° 0 mm 0 mps 745 mmHg 62%
    07:00 +22°C° 0 mm 0 mps 745 mmHg 57%
    08:00 +26°C° 0 mm 1 mps 745 mmHg 51%
    09:00 +28°C° 0 mm 1 mps 745 mmHg 44%
    10:00 +30°C° 0 mm 1 mps 745 mmHg 37%
    11:00 +31°C° 0 mm 2 mps 745 mmHg 34%
    12:00 +31°C° 0 mm 3 mps 745 mmHg 32%
    13:00 +33°C° 0 mm 3 mps 744 mmHg 30%
    14:00 +31°C° 0 mm 3 mps 744 mmHg 34%
    15:00 +30°C° 0 mm 3 mps 744 mmHg 38%
    16:00 +29°C° 0 mm 3 mps 744 mmHg 42%
    17:00 +27°C° 0 mm 2 mps 744 mmHg 49%
    18:00 +25°C° 0 mm 1 mps 744 mmHg 56%
    19:00 +21°C° 0 mm 0 mps 744 mmHg 63%
    20:00 +21°C° 0 mm 0 mps 744 mmHg 63%
    21:00 +22°C° 0 mm 1 mps 744 mmHg 63%
    22:00 +22°C° 0 mm 1 mps 744 mmHg 63%
    23:00 +22°C° 0 mm 1 mps 744 mmHg 63%

    Day after tomorrow, 18 September, Wednesday

    Time Temperature Precipitation Wind Pressure Humidity
    00:00 +19°C° 0 mm 0 mps 744 mmHg 63%
    01:00 +19°C° 0 mm 0 mps 744 mmHg 62%
    02:00 +21°C° 0 mm 1 mps 744 mmHg 62%
    03:00 +20°C° 0 mm 1 mps 743 mmHg 61%
    04:00 +20°C° 0 mm 1 mps 743 mmHg 61%
    05:00 +21°C° 0 mm 1 mps 743 mmHg 57%
    06:00 +23°C° 0 mm 1 mps 744 mmHg 53%
    07:00 +24°C° 0 mm 1 mps 744 mmHg 50%
    08:00 +25°C° 0 mm 1 mps 744 mmHg 46%
    09:00 +27°C° 0 mm 2 mps 744 mmHg 42%
    10:00 +29°C° 0 mm 2 mps 744 mmHg 38%
    11:00 +30°C° 0 mm 3 mps 744 mmHg 37%
    12:00 +30°C° 0 mm 3 mps 744 mmHg 36%
    13:00 +32°C° 0 mm 4 mps 744 mmHg 35%
    14:00 +31°C° 0 mm 3 mps 743 mmHg 38%
    15:00 +30°C° 0 mm 3 mps 743 mmHg 41%
    16:00 +29°C° 0 mm 3 mps 743 mmHg 45%
    17:00 +27°C° 0 mm 2 mps 743 mmHg 54%
    18:00 +25°C° 0 mm 2 mps 744 mmHg 63%
    19:00 +23°C° 0 mm 1 mps 744 mmHg 72%
    20:00 +23°C° 0 mm 1 mps 744 mmHg 74%
    21:00 +23°C° 0 mm 1 mps 745 mmHg 75%
    22:00 +22°C° 0 mm 1 mps 745 mmHg 77%
    23:00 +22°C° 0 mm 1 mps 745 mmHg 76%

    19 September, Thursday

    Time Temperature Precipitation Wind Pressure Humidity
    00:00 +22°C° 0 mm 1 mps 745 mmHg 75%
    01:00 +22°C° 0 mm 1 mps 745 mmHg 74%
    02:00 +22°C° 0 mm 1 mps 745 mmHg 73%
    03:00 +21°C° 0 mm 1 mps 745 mmHg 72%
    04:00 +21°C° 0 mm 1 mps 745 mmHg 71%
    05:00 +22°C° 0 mm 1 mps 745 mmHg 67%
    06:00 +23°C° 0 mm 1 mps 745 mmHg 63%
    07:00 +24°C° 0 mm 1 mps 745 mmHg 59%
    08:00 +26°C° 0 mm 1 mps 745 mmHg 52%
    09:00 +28°C° 0 mm 1 mps 745 mmHg 45%
    10:00 +30°C° 0 mm 1 mps 745 mmHg 39%
    11:00 +30°C° 0 mm 2 mps 745 mmHg 38%
    12:00 +31°C° 0 mm 3 mps 745 mmHg 38%
    13:00 +32°C° 0 mm 4 mps 744 mmHg 37%
    14:00 +30°C° 0.2 mm 3 mps 744 mmHg 40%
    15:00 +29°C° 0.2 mm 3 mps 744 mmHg 43%
    16:00 +29°C° 0.2 mm 3 mps 744 mmHg 46%
    17:00 +27°C° 0.1 mm 2 mps 744 mmHg 53%
    18:00 +25°C° 0.1 mm 1 mps 745 mmHg 59%
    19:00 +23°C° 0.1 mm 1 mps 745 mmHg 65%
    20:00 +23°C° 0 mm 1 mps 745 mmHg 65%
    21:00 +21°C° 0 mm 0 mps 746 mmHg 65%
    22:00 +21°C° 0 mm 0 mps 746 mmHg 65%
    23:00 +21°C° 0 mm 0 mps 746 mmHg 67%

    20 September, Friday

    Time Temperature Precipitation Wind Pressure Humidity
    00:00 +20°C° 0 mm 0 mps 746 mmHg 69%
    01:00 +22°C° 0 mm 1 mps 746 mmHg 71%
    02:00 +22°C° 0 mm 1 mps 746 mmHg 71%
    03:00 +22°C° 0 mm 1 mps 746 mmHg 71%
    04:00 +21°C° 0 mm 1 mps 746 mmHg 71%
    05:00 +22°C° 0 mm 1 mps 746 mmHg 69%
    06:00 +22°C° 0 mm 1 mps 746 mmHg 68%
    07:00 +23°C° 0 mm 1 mps 746 mmHg 66%
    08:00 +24°C° 0 mm 1 mps 746 mmHg 60%
    09:00 +26°C° 0 mm 1 mps 746 mmHg 53%
    10:00 +27°C° 0 mm 1 mps 747 mmHg 47%
    11:00 +28°C° 0.2 mm 2 mps 746 mmHg 45%
    12:00 +29°C° 0.2 mm 2 mps 746 mmHg 43%
    13:00 +29°C° 0.2 mm 3 mps 746 mmHg 41%
    14:00 +29°C° 0.2 mm 3 mps 746 mmHg 42%
    15:00 +28°C° 0.2 mm 3 mps 746 mmHg 43%
    16:00 +27°C° 0.2 mm 3 mps 745 mmHg 44%
    17:00 +26°C° 0 mm 2 mps 746 mmHg 49%
    18:00 +24°C° 0 mm 2 mps 746 mmHg 53%
    19:00 +22°C° 0 mm 1 mps 747 mmHg 58%
    20:00 +22°C° 0 mm 1 mps 747 mmHg 59%
    21:00 +21°C° 0 mm 1 mps 747 mmHg 61%
    22:00 +21°C° 0 mm 1 mps 747 mmHg 62%
    23:00 +19°C° 0 mm 2 mps 748 mmHg 61%

    21 September, Saturday

    Time Temperature Precipitation Wind Pressure Humidity
    00:00 +19°C° 0 mm 2 mps 748 mmHg 59%
    01:00 +18°C° 0 mm 2 mps 748 mmHg 58%
    02:00 +18°C° 0 mm 2 mps 748 mmHg 55%
    03:00 +18°C° 0 mm 2 mps 748 mmHg 52%
    04:00 +17°C° 0 mm 2 mps 748 mmHg 50%
    05:00 +18°C° 0 mm 2 mps 748 mmHg 46%
    06:00 +19°C° 0 mm 2 mps 748 mmHg 43%
    07:00 +20°C° 0 mm 2 mps 749 mmHg 40%
    08:00 +23°C° 0 mm 2 mps 749 mmHg 36%
    09:00 +25°C° 0 mm 2 mps 749 mmHg 33%
    10:00 +27°C° 0 mm 1 mps 750 mmHg 30%
    11:00 +28°C° 0 mm 2 mps 749 mmHg 30%
    12:00 +28°C° 0 mm 2 mps 749 mmHg 30%
    13:00 +29°C° 0 mm 2 mps 749 mmHg 30%
    14:00 +28°C° 0 mm 3 mps 749 mmHg 31%
    15:00 +28°C° 0 mm 3 mps 749 mmHg 32%
    16:00 +27°C° 0 mm 3 mps 748 mmHg 33%
    17:00 +25°C° 0 mm 2 mps 749 mmHg 39%
    18:00 +23°C° 0 mm 2 mps 749 mmHg 45%
    19:00 +21°C° 0 mm 1 mps 749 mmHg 51%
    20:00 +20°C° 0 mm 1 mps 749 mmHg 53%
    21:00 +20°C° 0 mm 1 mps 750 mmHg 55%
    22:00 +19°C° 0 mm 1 mps 750 mmHg 56%
    23:00 +19°C° 0 mm 1 mps 750 mmHg 57%
    Show more